Flag for Romania Weather past 2 weeks in Oradea, Romania

Now
36 °F

Sunny.


Feels Like: 25 °F
Forecast: 42 / 49 °F
Wind: 18 mph from Southwest

Location: Oradea Airport

Current Time: Dec 22, 2014 at 9:29:41 AM

Latest Report: Dec 22, 2014 at 9:00 AM


Visibility: 10 mi

Pressure: 30.24 "Hg

Humidity: 81%

Dew point: 30 °F

Location of OradeaLocation

Historic Weather in Oradea — Graph

°F

Oradea temperature yesterday

Maximum temperature yesterday: 45 °F (at 1:30 PM)
Minimum temperature yesterday: 34 °F (at 9:30 PM)
Average temperature yesterday: 39 °F

Past Weeks' High & Low Weather Summary

 TemperatureHumidityPressure
High52 °F (Dec 13, 1:30 PM)100% (Dec 7, 8:00 AM)30.36 "Hg (Dec 7, 8:00 AM)
Low32 °F (Dec 12, 8:30 PM)44% (Dec 13, 1:30 PM)29.83 "Hg (Dec 17, 4:00 AM)
Average42 °F81%30.09 "Hg
* Reported Dec 7 8:00 AM — Dec 22 8:30 AM, Oradea, Weather by CustomWeather, © 2014

Note: Actual official high and low records may vary slightly from our data, if they occured in-between our weather recording intervals... More about our weather records

Advertising

Oradea weather history for previous 24 hours

 ConditionsComfort  
Time TempWeatherWind HumidityBarometerVisibility
8:30 AM
Dec 22
36 °FSunny.20 mph81%30.24 "Hg10 mi
8:00 AM36 °FClear.18 mph81%30.27 "Hg10 mi
7:30 AM36 °FClear.16 mph81%30.27 "Hg10 mi
7:00 AM36 °FClear.18 mph81%30.27 "Hg10 mi
6:30 AM36 °FClear.16 mph81%30.27 "Hg10 mi
5:30 AM36 °FClear.16 mph81%30.27 "Hg10 mi
5:00 AM34 °FClear.16 mph87%30.30 "Hg10 mi
4:00 AM36 °FPartly cloudy.14 mph81%30.30 "HgN/A
3:00 AM34 °FOvercast.14 mph87%30.33 "HgN/A
2:00 AM34 °FPassing clouds.12 mph87%30.33 "HgN/A
1:00 AM34 °FPassing clouds.12 mph87%30.33 "HgN/A
12:00 AM34 °FPassing clouds.9 mph87%30.36 "HgN/A
11:00 PM
Dec 21
34 °FOvercast.2 mph87%30.33 "Hg6 mi
10:30 PM34 °FClear.5 mph87%30.33 "Hg10 mi
10:00 PM34 °FClear.7 mph87%30.33 "Hg10 mi
9:30 PM34 °FClear.7 mph87%30.33 "Hg10 mi
8:30 PM36 °FClear.7 mph81%30.33 "Hg10 mi
8:00 PM36 °FClear.5 mph81%30.33 "Hg10 mi
7:30 PM36 °FClear.9 mph81%30.30 "Hg10 mi
7:00 PM37 °FClear.12 mph81%30.30 "Hg10 mi
6:30 PM39 °FClear.12 mph75%30.27 "Hg10 mi
6:00 PM37 °FClear.12 mph87%30.27 "Hg10 mi
5:30 PM39 °FClear.9 mph81%30.27 "Hg10 mi
5:00 PM39 °FClear.9 mph81%30.24 "Hg10 mi
4:30 PM41 °FSunny.12 mph76%30.24 "Hg10 mi
4:00 PM43 °FSunny.12 mph76%30.24 "Hg10 mi
3:30 PM45 °FPassing clouds.14 mph66%30.21 "HgN/A
3:00 PM45 °FPassing clouds.14 mph66%30.21 "HgN/A
2:30 PM45 °FPassing clouds.14 mph66%30.18 "HgN/A
2:00 PM45 °FPassing clouds.14 mph66%30.18 "HgN/A
1:30 PM45 °FPassing clouds.14 mph66%30.18 "HgN/A
1:00 PM43 °FPassing clouds.16 mph71%30.18 "HgN/A
12:30 PM43 °FPassing clouds.12 mph71%30.18 "HgN/A
12:00 PM43 °FSunny.12 mph66%30.18 "Hg10 mi
11:30 AM43 °FSunny.12 mph66%30.18 "Hg10 mi
11:00 AM39 °FSunny.7 mph81%30.18 "Hg10 mi
10:30 AM41 °FSunny.9 mph76%30.15 "Hg10 mi
10:00 AM39 °FPassing clouds.5 mph81%30.12 "HgN/A
9:30 AM37 °FSunny.7 mph87%30.12 "Hg10 mi
9:00 AM36 °FSunny.9 mph87%30.09 "Hg10 mi
Weather by CustomWeather, © 2014

See weather overviewHow to use our weather pages